Weather History for St. Petersburg Airport, FL

Change the Weather History Date:

Thursday, October 10, 2013

  Actual Average Record
Temperature  
Mean Temperature 76 °F -  
Max Temperature 84 °F 84 °F 91 °F (1970)
Min Temperature 69 °F 71 °F 54 °F (2000)
Cooling Degree Days 12    
Growing Degree Days 26 (Base 50)    
Moisture  
Dew Point 66 °F    
Average Humidity 74    
Maximum Humidity 87    
Minimum Humidity 51    
Precipitation  
Precipitation 0.00 in - - ()
Sea Level Pressure  
Sea Level Pressure 30.03 in    
Wind  
Wind Speed 7 mph (NNE)    
Max Wind Speed 10 mph    
Max Gust Speed -    
Visibility 10 miles    
Events      
Averages and records for this station are not official NWS values.
T = Trace of Precipitation, MM = Missing Value Source: NWS Daily Summary

Daily Weather History Graph

Daily Weather History Graph

Search for Another Location

Airport:

Trip Planner

Search our weather history database for the weather conditions in past years. The results will help you decide how hot, cold, wet, or windy it might be!

Date:

Astronomy

Oct. 10, 2013 Rise Set
Actual Time 7:28 AM EDT 7:06 PM EDT
Civil Twilight 7:04 AM EDT 7:30 PM EDT
Nautical Twilight 6:37 AM EDT 7:57 PM EDT
Astronomical Twilight 6:10 AM EDT 8:24 PM EDT
Moon 1:00 PM EDT (10/10) No Moon Set
Length of Visible Light 12h 25m
Length of Day
11h 38m
Waxing Crescent, 35% of the Moon is Illuminated
Oct 10
Waxing Crescent
Oct 11
First Quarter
Oct 18
Full
Oct 26
Last Quarter
Nov 3
New

Hourly Weather History & Observations

Time (EDT) Temp. Heat Index Dew Point Humidity Pressure Visibility Wind Dir Wind Speed Gust Speed Precip Events Conditions
12:53 AM 70.0 °F - 64.9 °F 84% 30.04 in 10.0 mi NE 10.4 mph - N/A   Clear
1:53 AM 70.0 °F - 66.0 °F 87% 30.04 in 10.0 mi NE 10.4 mph - N/A   Clear
2:53 AM 70.0 °F - 64.9 °F 84% 30.04 in 10.0 mi ENE 6.9 mph - N/A   Clear
3:53 AM 70.0 °F - 64.9 °F 84% 30.03 in 10.0 mi NE 5.8 mph - N/A   Clear
4:53 AM 69.1 °F - 64.9 °F 87% 30.02 in 10.0 mi NE 5.8 mph - N/A   Clear
5:53 AM 69.1 °F - 64.9 °F 87% 30.03 in 10.0 mi NNE 8.1 mph - N/A   Clear
6:53 AM 69.1 °F - 64.9 °F 87% 30.04 in 10.0 mi NNE 8.1 mph - N/A   Clear
7:53 AM 69.1 °F - 64.9 °F 87% 30.05 in 10.0 mi NNE 5.8 mph - N/A   Clear
8:53 AM 71.1 °F - 64.9 °F 81% 30.06 in 10.0 mi NE 5.8 mph - N/A   Clear
9:53 AM 73.9 °F - 66.0 °F 76% 30.07 in 10.0 mi NNE 5.8 mph - N/A   Clear
10:53 AM 77.0 °F - 66.9 °F 71% 30.07 in 10.0 mi NNE 6.9 mph - N/A   Clear
11:53 AM 80.1 °F 82.3 °F 66.9 °F 64% 30.07 in 10.0 mi ENE 4.6 mph - N/A   Clear
12:53 PM 80.1 °F 82.1 °F 66.0 °F 62% 30.06 in 10.0 mi Calm Calm - N/A   Partly Cloudy
1:53 PM 82.0 °F 83.8 °F 64.9 °F 56% 30.03 in 10.0 mi Calm Calm - N/A   Clear
2:53 PM 84.0 °F 86.3 °F 66.0 °F 55% 30.01 in 10.0 mi North 3.5 mph - N/A   Clear
3:53 PM 84.9 °F 86.6 °F 64.9 °F 51% 29.99 in 10.0 mi Calm Calm - N/A   Clear
4:53 PM 84.0 °F 87.0 °F 68.0 °F 58% 29.99 in 10.0 mi NW 5.8 mph - N/A   Clear
5:53 PM 82.0 °F 84.5 °F 66.9 °F 60% 29.98 in 10.0 mi NW 10.4 mph - N/A   Clear
6:53 PM 79.0 °F - 66.9 °F 66% 29.99 in 10.0 mi NW 8.1 mph - N/A   Partly Cloudy
7:53 PM 77.0 °F - 66.0 °F 69% 29.99 in 10.0 mi North 6.9 mph - N/A   Clear
8:53 PM 75.9 °F - 68.0 °F 76% 30.01 in 10.0 mi North 9.2 mph - N/A   Clear
9:53 PM 77.0 °F - 69.1 °F 76% 30.02 in 10.0 mi NNE 9.2 mph - N/A   Clear
10:53 PM 75.9 °F - 69.1 °F 79% 30.02 in 10.0 mi NNE 9.2 mph - N/A   Clear
11:53 PM 75.9 °F - 69.1 °F 79% 30.02 in 10.0 mi NNE 5.8 mph - N/A   Clear